KR0L-13 Weather Reports


time (UTC)temp
C
wind
direction
speed
KPH
gust
KPH
rain 1hr
cm
rain 24hr
cm
rain mn
cm
humidity
%
barometer
mb
20260510193022 21 338 11.3 20.9 0.00 0.00 0.00 28 1022.1
20260510192022 20 338 11.3 22.5 0.00 0.00 0.00 30 1022.1
20260510191022 20 338 12.9 19.3 0.00 0.00 0.00 29 1022.2
20260510190022 20 315 12.9 22.5 0.00 0.00 0.00 31 1022.3
20260510185022 20 315 11.3 22.5 0.00 0.00 0.00 30 1022.3
20260510184022 19 338 12.9 20.9 0.00 0.00 0.00 31 1022.2
20260510183022 19 315 12.9 22.5 0.00 0.00 0.00 29 1022.2
20260510182022 18 0 12.9 19.3 0.00 0.00 0.00 32 1022.2
20260510181022 18 338 11.3 17.7 0.00 0.00 0.00 35 1022.1
20260510180022 18 338 11.3 19.3 0.00 0.00 0.00 34 1022.4
20260510175022 17 338 14.5 20.9 0.00 0.00 0.00 36 1022.4
20260510174022 17 338 12.9 20.9 0.00 0.00 0.00 36 1022.6
20260510173022 17 338 9.7 17.7 0.00 0.00 0.00 36 1022.5
20260510172022 17 0 11.3 17.7 0.00 0.00 0.00 36 1022.3
20260510171022 16 0 11.3 19.3 0.00 0.00 0.00 38 1022.3
20260510170022 16 338 9.7 16.1 0.00 0.00 0.00 41 1022.3
20260510165022 15 338 11.3 16.1 0.00 0.00 0.00 42 1022.2
20260510164022 15 338 9.7 14.5 0.00 0.00 0.00 45 1022.4
20260510163021 14 338 8.0 12.9 0.00 0.00 0.00 47 1022.2
20260510162021 13 338 6.4 11.3 0.00 0.00 0.00 50 1022.1
20260510161022 13 338 4.8 9.7 0.00 0.00 0.00 53 1021.9
20260510160021 13 315 8.0 14.5 0.00 0.00 0.00 52 1022.0
20260510155023 13 338 9.7 17.7 0.00 0.00 0.00 50 1021.9
20260510154021 14 338 11.3 17.7 0.00 0.00 0.00 46 1021.9
20260510153021 14 0 12.9 20.9 0.00 0.00 0.00 44 1021.5
20260510152021 14 338 12.9 20.9 0.00 0.00 0.00 45 1021.9
20260510151021 13 338 9.7 16.1 0.00 0.00 0.00 45 1022.2
20260510150022 14 338 8.0 11.3 0.00 0.00 0.00 47 1022.5
20260510145021 14 338 6.4 11.3 0.00 0.00 0.00 46 1022.5
20260510144021 13 338 6.4 11.3 0.00 0.00 0.00 44 1022.6
20260510143034 13 0 4.8 9.7 0.00 0.00 0.00 47 1022.4
20260510142021 13 0 4.8 11.3 0.00 0.00 0.00 48 1022.1
20260510141021 13 0 3.2 8.0 0.00 0.00 0.00 51 1021.8
20260510140021 13 0 3.2 6.4 0.00 0.00 0.00 52 1021.7
20260510135021 13 0 4.8 9.7 0.00 0.00 0.00 52 1021.7
20260510134022 13 0 4.8 11.3 0.00 0.00 0.00 53 1021.5
20260510133021 13 0 8.0 14.5 0.00 0.00 0.00 53 1021.4
20260510132021 13 0 9.7 19.3 0.00 0.00 0.00 53 1021.3
20260510131021 13 0 11.3 19.3 0.00 0.00 0.00 54 1020.9
20260510130021 13 338 9.7 17.7 0.00 0.00 0.00 55 1020.8
20260510125022 13 338 9.7 17.7 0.00 0.00 0.00 56 1020.6
20260510124021 13 338 12.9 22.5 0.00 0.00 0.00 57 1020.2
20260510123021 13 338 11.3 19.3 0.00 0.00 0.00 58 1019.9
20260510122021 13 338 6.4 12.9 0.00 0.00 0.00 61 1019.8
20260510121021 13 338 9.7 17.7 0.00 0.00 0.00 62 1019.4
20260510120021 13 338 8.0 19.3 0.00 0.00 0.00 63 1019.3
20260510115021 13 338 12.9 20.9 0.00 0.00 0.00 64 1018.7
20260510114021 13 315 11.3 19.3 0.00 0.00 0.00 64 1018.6
20260510113021 14 0 11.3 20.9 0.00 0.00 0.00 61 1017.8
20260510112021 14 338 12.9 17.7 0.00 0.00 0.00 63 1018.0
20260510111021 14 338 12.9 22.5 0.00 0.00 0.00 64 1017.7
20260510110021 14 338 14.5 20.9 0.00 0.00 0.00 65 1017.6
20260510105021 13 338 12.9 20.9 0.00 0.00 0.00 66 1017.5
20260510104021 13 315 12.9 25.7 0.00 0.00 0.00 68 1017.8
20260510103021 13 315 11.3 19.3 0.00 0.00 0.00 69 1017.7
20260510102021 13 315 11.3 19.3 0.00 0.00 0.00 69 1017.6
20260510101021 13 315 12.9 24.1 0.00 0.00 0.00 69 1017.6
20260510100021 13 315 12.9 19.3 0.00 0.00 0.00 67 1017.4
20260510095021 13 315 11.3 19.3 0.00 0.00 0.00 67 1017.3
20260510094021 14 315 8.0 16.1 0.00 0.00 0.00 66 1017.5
20260510093021 14 315 11.3 19.3 0.00 0.00 0.00 66 1017.3
20260510092021 14 315 12.9 20.9 0.00 0.00 0.00 66 1017.1
20260510091021 14 338 12.9 20.9 0.00 0.00 0.00 66 1016.8
20260510090021 15 338 9.7 20.9 0.00 0.00 0.00 65 1016.9
20260510085021 15 315 11.3 19.3 0.00 0.00 0.00 65 1016.8
20260510084021 15 315 11.3 22.5 0.00 0.00 0.00 64 1016.6
20260510083021 15 315 11.3 19.3 0.00 0.00 0.00 64 1016.4
20260510082021 15 315 9.7 16.1 0.00 0.00 0.00 64 1016.4
20260510081021 15 315 9.7 19.3 0.00 0.00 0.00 64 1016.5
20260510080021 15 315 11.3 17.7 0.00 0.00 0.00 65 1016.4
20260510075021 15 315 9.7 17.7 0.00 0.00 0.00 65 1016.3
20260510074033 15 338 11.3 17.7 0.00 0.00 0.00 65 1016.2
20260510073021 15 315 8.0 12.9 0.00 0.00 0.00 64 1016.3
20260510072021 16 338 9.7 16.1 0.00 0.00 0.00 64 1016.2
20260510071021 16 315 8.0 11.3 0.00 0.00 0.00 63 1016.0
20260510070021 16 338 8.0 14.5 0.00 0.00 0.00 61 1015.8
20260510065021 16 338 9.7 17.7 0.00 0.00 0.00 61 1015.6
20260510064021 16 338 9.7 16.1 0.00 0.00 0.00 59 1015.5
20260510063021 16 338 9.7 17.7 0.00 0.00 0.00 59 1015.3
20260510062021 17 338 8.0 16.1 0.00 0.00 0.00 60 1015.1
20260510061021 17 338 8.0 12.9 0.00 0.00 0.00 60 1015.0
20260510060021 17 338 9.7 14.5 0.00 0.00 0.00 60 1014.9
20260510055021 17 338 9.7 16.1 0.00 0.00 0.00 60 1014.7
20260510054021 17 338 9.7 14.5 0.00 0.00 0.00 60 1014.8
20260510053020 17 338 11.3 16.1 0.00 0.00 0.00 59 1014.7
20260510052020 18 315 9.7 16.1 0.00 0.00 0.00 58 1014.8
20260510051020 18 23 9.7 16.1 0.00 0.00 0.00 58 1013.8
20260510050020 18 338 8.0 14.5 0.00 0.00 0.00 58 1014.5
20260510045020 17 338 6.4 9.7 0.00 0.00 0.00 59 1014.3
20260510044020 18 338 8.0 11.3 0.00 0.00 0.00 59 1014.5
20260510043020 18 338 8.0 11.3 0.00 0.00 0.00 60 1014.4
20260510042020 18 338 8.0 12.9 0.00 0.00 0.00 59 1014.1
20260510041020 18 338 6.4 14.5 0.00 0.00 0.00 59 1014.0
20260510040021 18 338 8.0 14.5 0.00 0.00 0.00 58 1014.1
20260510035020 18 0 6.4 11.3 0.00 0.00 0.00 60 1013.8
20260510034020 18 338 6.4 8.0 0.00 0.00 0.00 60 1013.6
20260510033020 19 0 6.4 9.7 0.00 0.00 0.00 56 1013.7
20260510032020 20 338 6.4 11.3 0.00 0.00 0.00 53 1013.5
20260510031020 20 338 4.8 12.9 0.00 0.00 0.00 53 1013.3
20260510030020 20 338 4.8 9.7 0.00 0.00 0.00 52 1013.0
20260510025020 20 338 6.4 9.7 0.00 0.00 0.00 51 1012.6
20260510024020 20 338 6.4 9.7 0.00 0.00 0.00 51 1012.1
20260510023020 21 338 9.7 16.1 0.00 0.00 0.00 50 1011.4
20260510022020 21 0 14.5 20.9 0.00 0.00 0.00 50 1010.4
20260510021020 20 0 9.7 16.1 0.00 0.00 0.00 52 1010.5
20260510020020 21 0 12.9 20.9 0.00 0.00 0.00 52 1010.8
20260510015020 21 338 19.3 29.0 0.00 0.00 0.00 50 1011.0
20260510014020 22 315 17.7 29.0 0.00 0.00 0.00 49 1012.0
20260510013020 22 270 16.1 27.4 0.00 0.00 0.00 47 1012.1
20260510012020 23 248 11.3 22.5 0.00 0.00 0.00 43 1012.0
20260510011020 23 270 8.0 12.9 0.00 0.00 0.00 40 1011.7
20260510010020 24 293 6.4 12.9 0.00 0.00 0.00 39 1011.1
20260510005020 24 338 6.4 11.3 0.00 0.00 0.00 37 1009.9
20260510004020 25 338 9.7 17.7 0.00 0.00 0.00 36 1008.9
20260510003020 25 338 9.7 16.1 0.00 0.00 0.00 35 1008.6
20260510002020 25 338 9.7 14.5 0.00 0.00 0.00 35 1008.3
20260510001020 25 338 9.7 14.5 0.00 0.00 0.00 33 1008.0
20260510000020 26 0 8.0 14.5 0.00 0.00 0.00 33 1008.2
20260509235020 27 338 9.7 17.7 0.00 0.00 0.00 30 1008.2
20260509234022 27 293 3.2 6.4 0.00 0.00 0.00 28 1008.3
20260509233022 28 135 0.0 3.2 0.00 0.00 0.00 23 1008.6
20260509232022 28 135 1.6 4.8 0.00 0.00 0.00 25 1008.5
20260509231022 27 90 3.2 3.2 0.00 0.00 0.00 27 1008.4
20260509230022 27 90 3.2 6.4 0.00 0.00 0.00 26 1008.6
20260509225022 27 113 1.6 4.8 0.00 0.00 0.00 27 1008.8
20260509224022 28 113 1.6 4.8 0.00 0.00 0.00 25 1008.7
20260509223022 28 113 3.2 4.8 0.00 0.00 0.00 26 1008.7
20260509222022 28 135 1.6 4.8 0.00 0.00 0.00 25 1008.6
20260509221022 28 135 4.8 8.0 0.00 0.00 0.00 24 1008.7
20260509220022 28 135 1.6 3.2 0.00 0.00 0.00 23 1008.6
20260509215022 28 158 1.6 3.2 0.00 0.00 0.00 24 1008.6
20260509214022 29 113 3.2 6.4 0.00 0.00 0.00 23 1008.6
20260509213022 30 135 4.8 12.9 0.00 0.00 0.00 22 1008.8
20260509212022 30 135 6.4 16.1 0.00 0.00 0.00 22 1008.7
20260509211022 30 158 6.4 12.9 0.00 0.00 0.00 24 1008.7
20260509210022 30 90 6.4 12.9 0.00 0.00 0.00 22 1009.0
20260509205022 30 203 1.6 9.7 0.00 0.00 0.00 23 1009.2
20260509204022 30 158 4.8 8.0 0.00 0.00 0.00 22 1009.3
20260509203022 30 180 1.6 6.4 0.00 0.00 0.00 22 1009.4
20260509202022 30 203 4.8 14.5 0.00 0.00 0.00 22 1009.5
20260509201022 30 158 8.0 14.5 0.00 0.00 0.00 21 1009.7
20260509200022 30 270 4.8 12.9 0.00 0.00 0.00 21 1009.8
20260509195022 30 158 8.0 16.1 0.00 0.00 0.00 22 1009.7
20260509194022 30 158 6.4 17.7 0.00 0.00 0.00 22 1009.9